Flag for Netherlands Weather past 2 weeks in Zaandam, Netherlands

Now
36 °F

Clear.


Feels Like: 31 °F
Forecast: 42 / 48 °F
Wind: 6 mph from Northwest

Location: Amsterdam Schiphol Airport

Current Time: Mar 5, 2015 at 4:15:18 AM

Latest Report: Mar 5, 2015 at 2:55 AM


Visibility: 10 mi

Pressure: 30.57 "Hg

Humidity: 93%

Dew point: 34 °F

Location of ZaandamLocation

Historic Weather in Zaandam — Graph

°F

Zaandam temperature yesterday

Maximum temperature yesterday: 45 °F (at 2:25 PM)
Minimum temperature yesterday: 39 °F (at 2:25 AM)
Average temperature yesterday: 42 °F

Past Weeks' High & Low Weather Summary

 TemperatureHumidityPressure
High50 °F (Mar 1, 10:55 AM)100% (Feb 18, 2:25 AM)30.72 "Hg (Feb 18, 2:25 AM)
Low27 °F (Feb 18, 6:25 AM)50% (Feb 18, 3:25 PM)29.24 "Hg (Feb 23, 3:25 AM)
Average41 °F84%29.84 "Hg
* Reported Feb 18 2:25 AM — Mar 5 2:55 AM, Zaandam, Weather by CustomWeather, © 2015

Note: Actual official high and low records may vary slightly from our data, if they occured in-between our weather recording intervals... More about our weather records

Advertising

Zaandam weather history for previous 24 hours

 ConditionsComfort  
Time TempWeatherWind HumidityBarometerVisibility
2:55 AM
Thu, Mar 5
36 °FClear.6 mph93%30.57 "Hg10 mi
2:25 AM36 °FClear.6 mph93%30.57 "Hg10 mi
1:55 AM37 °FPassing clouds.7 mph93%30.57 "HgN/A
1:25 AM37 °FPassing clouds.7 mph93%30.57 "HgN/A
12:55 AM39 °FPassing clouds.9 mph93%30.54 "HgN/A
12:25 AM39 °FPassing clouds.8 mph93%30.54 "HgN/A
11:55 PM
Wed, Mar 4
41 °FPassing clouds.9 mph87%30.51 "HgN/A
11:25 PM43 °FSprinkles. Partly cloudy.10 mph87%30.51 "Hg4 mi
10:25 PM41 °FPassing clouds.14 mph93%30.48 "HgN/A
9:55 PM41 °FPassing clouds.14 mph93%30.48 "HgN/A
9:25 PM41 °FPassing clouds.13 mph93%30.45 "HgN/A
8:55 PM43 °FSprinkles. Partly cloudy.15 mph87%30.45 "HgN/A
8:25 PM43 °FPartly cloudy.17 mph87%30.42 "HgN/A
7:55 PM43 °FSprinkles. Partly cloudy.16 mph81%30.39 "HgN/A
7:25 PM43 °FSprinkles. Partly cloudy.20 mph81%30.39 "HgN/A
6:55 PM43 °FSprinkles. Partly cloudy.20 mph81%30.36 "HgN/A
6:25 PM43 °FScattered showers. Partly cloudy.21 mph81%30.36 "HgN/A
5:55 PM43 °FBroken clouds.20 mph81%30.33 "HgN/A
5:25 PM43 °FScattered showers. Scattered clouds.22 mph81%30.30 "HgN/A
4:55 PM43 °FSprinkles. Scattered clouds.25 mph81%30.30 "HgN/A
4:25 PM45 °FPassing clouds.22 mph71%30.27 "HgN/A
3:55 PM45 °FBroken clouds.23 mph71%30.27 "HgN/A
3:25 PM43 °FSprinkles. Broken clouds.21 mph81%30.27 "HgN/A
2:55 PM45 °FScattered showers. Scattered clouds.20 mph76%30.27 "HgN/A
2:25 PM45 °FPartly sunny.17 mph76%30.24 "HgN/A
1:55 PM43 °FBroken clouds.21 mph76%30.24 "HgN/A
1:25 PM43 °FPartly sunny.21 mph76%30.24 "HgN/A
12:55 PM43 °FPartly sunny.20 mph76%30.24 "HgN/A
12:25 PM43 °FPartly sunny.20 mph76%30.21 "HgN/A
11:55 AM43 °FBroken clouds.22 mph76%30.21 "HgN/A
11:25 AM43 °FBroken clouds.23 mph76%30.18 "HgN/A
10:55 AM43 °FBroken clouds.23 mph76%30.18 "HgN/A
10:25 AM43 °FBroken clouds.24 mph76%30.18 "HgN/A
9:55 AM43 °FPartly sunny.23 mph76%30.15 "HgN/A
9:25 AM41 °FPartly sunny.21 mph81%30.15 "HgN/A
8:55 AM41 °FPartly sunny.20 mph81%30.15 "HgN/A
8:25 AM41 °FPartly sunny.20 mph81%30.12 "HgN/A
7:55 AM41 °FPassing clouds.20 mph76%30.12 "HgN/A
7:25 AM41 °FPassing clouds.16 mph76%30.12 "HgN/A
6:55 AM41 °FPassing clouds.17 mph76%30.09 "HgN/A
6:25 AM41 °FPassing clouds.20 mph76%30.09 "HgN/A
5:55 AM41 °FPassing clouds.20 mph76%30.09 "HgN/A
5:25 AM41 °FPassing clouds.18 mph76%30.09 "HgN/A
4:55 AM41 °FPassing clouds.18 mph76%30.07 "HgN/A
Weather by CustomWeather, © 2015

See weather overviewHow to use our weather pages